LRCK Weather Reports


Display with metric or nautical units.
time (UTC)temp
F
wind
direction
speed
MPH
gust
MPH
rain 1hr
in
rain 24hr
in
rain mn
in
humidity
%
barometer
mb
20260902200333 68 180 5.0 0.0 0.00 0.00 0.00 88 1017.0
20260902194817 68 160 5.0 0.0 0.00 0.00 0.00 88 1017.0
20260902193317 68 160 5.0 0.0 0.00 0.00 0.00 88 1017.0
20260902191817 68 160 5.0 0.0 0.00 0.00 0.00 88 1018.0
20260902190317 68 160 5.0 0.0 0.00 0.00 0.00 88 1018.0
20260902184818 70 170 3.0 0.0 0.00 0.00 0.00 83 1018.0
20260902183317 70 170 3.0 0.0 0.00 0.00 0.00 83 1018.0
20260902181817 70 140 5.0 0.0 0.00 0.00 0.00 88 1017.0
20260902180317 70 140 5.0 0.0 0.00 0.00 0.00 88 1017.0
20260902174818 70 110 3.0 0.0 0.00 0.00 0.00 88 1017.0
20260902173317 70 110 3.0 0.0 0.00 0.00 0.00 88 1017.0
20260902171817 72 110 6.0 0.0 0.00 0.00 0.00 83 1017.0
20260902170317 72 110 6.0 0.0 0.00 0.00 0.00 83 1017.0
20260902164932 75 130 7.0 0.0 0.00 0.00 0.00 74 1017.0
20260902163317 75 130 7.0 0.0 0.00 0.00 0.00 74 1017.0
20260902161817 77 140 8.0 0.0 0.00 0.00 0.00 61 1017.0
20260902160328 77 140 8.0 0.0 0.00 0.00 0.00 61 1017.0
20260902154818 79 120 9.0 0.0 0.00 0.00 0.00 61 1017.0
20260902153316 79 120 9.0 0.0 0.00 0.00 0.00 61 1017.0
20260902151817 81 110 10.0 0.0 0.00 0.00 0.00 54 1017.0
20260902150317 81 110 10.0 0.0 0.00 0.00 0.00 54 1017.0
20260902144817 81 100 11.0 0.0 0.00 0.00 0.00 51 1017.0
20260902143318 81 100 11.0 0.0 0.00 0.00 0.00 51 1017.0
20260902141814 82 100 11.0 0.0 0.00 0.00 0.00 48 1017.0
20260902140317 82 100 11.0 0.0 0.00 0.00 0.00 48 1017.0
20260902134818 82 90 11.0 0.0 0.00 0.00 0.00 48 1017.0
20260902133316 82 90 11.0 0.0 0.00 0.00 0.00 48 1017.0
20260902131817 84 90 13.0 0.0 0.00 0.00 0.00 45 1017.0
20260902130317 84 90 13.0 0.0 0.00 0.00 0.00 45 1017.0
20260902124819 84 100 13.0 0.0 0.00 0.00 0.00 45 1018.0
20260902123317 84 100 13.0 0.0 0.00 0.00 0.00 45 1018.0
20260902121818 86 100 10.0 0.0 0.00 0.00 0.00 43 1018.0
20260902120317 86 100 10.0 0.0 0.00 0.00 0.00 43 1018.0
20260902114817 88 100 8.0 0.0 0.00 0.00 0.00 40 1018.0
20260902113317 88 100 8.0 0.0 0.00 0.00 0.00 40 1018.0
20260902111817 86 110 8.0 0.0 0.00 0.00 0.00 43 1018.0
20260902110318 86 110 8.0 0.0 0.00 0.00 0.00 43 1018.0
20260902104817 84 160 8.0 0.0 0.00 0.00 0.00 48 1018.0
20260902103317 84 160 8.0 0.0 0.00 0.00 0.00 48 1018.0
20260902101817 84 5.0 0.0 0.00 0.00 0.00 48 1019.0
20260902100323 84 5.0 0.0 0.00 0.00 0.00 48 1019.0
20260902094817 86 2.0 0.0 0.00 0.00 0.00 40 1019.0
20260902093317 86 2.0 0.0 0.00 0.00 0.00 40 1019.0
20260902091817 86 80 7.0 0.0 0.00 0.00 0.00 40 1019.0
20260902090418 82 60 6.0 0.0 0.00 0.00 0.00 45 1019.0
20260902084817 82 60 6.0 0.0 0.00 0.00 0.00 45 1019.0
20260902083317 82 60 6.0 0.0 0.00 0.00 0.00 45 1019.0
20260902081817 82 30 7.0 0.0 0.00 0.00 0.00 45 1019.0
20260902080318 82 30 7.0 0.0 0.00 0.00 0.00 45 1019.0
20260902074853 81 30 8.0 0.0 0.00 0.00 0.00 51 1019.0
20260902073317 81 30 8.0 0.0 0.00 0.00 0.00 51 1019.0
20260902071814 79 50 7.0 0.0 0.00 0.00 0.00 51 1019.0
20260902070317 79 50 7.0 0.0 0.00 0.00 0.00 51 1019.0
20260902064817 77 40 7.0 0.0 0.00 0.00 0.00 57 1018.0
20260902063318 77 40 7.0 0.0 0.00 0.00 0.00 57 1018.0
20260902061818 75 40 8.0 0.0 0.00 0.00 0.00 61 1018.0
20260902060317 75 40 8.0 0.0 0.00 0.00 0.00 61 1018.0
20260902054817 73 30 7.0 0.0 0.00 0.00 0.00 65 1018.0
20260902053317 73 30 7.0 0.0 0.00 0.00 0.00 65 1018.0
20260902051817 68 1.0 0.0 0.00 0.00 0.00 73 1018.0
20260902050318 68 1.0 0.0 0.00 0.00 0.00 73 1018.0
20260902044817 64 1.0 0.0 0.00 0.00 0.00 83 1018.0
20260902043317 64 1.0 0.0 0.00 0.00 0.00 83 1018.0
20260902041817 64 350 10.0 0.0 0.00 0.00 0.00 78 1018.0
20260902040321 64 350 10.0 0.0 0.00 0.00 0.00 78 1018.0
20260902034817 64 350 8.0 0.0 0.00 0.00 0.00 78 1018.0
20260902033318 64 350 8.0 0.0 0.00 0.00 0.00 78 1018.0
20260902031817 64 2.0 0.0 0.00 0.00 0.00 78 1018.0
20260902030317 64 2.0 0.0 0.00 0.00 0.00 78 1018.0
20260902024817 64 320 9.0 0.0 0.00 0.00 0.00 83 1018.0
20260902023317 64 320 9.0 0.0 0.00 0.00 0.00 83 1018.0
20260902021819 64 340 5.0 0.0 0.00 0.00 0.00 83 1018.0
20260902020317 64 340 5.0 0.0 0.00 0.00 0.00 83 1018.0
20260902014817 63 340 8.0 0.0 0.00 0.00 0.00 94 1018.0
20260902013317 63 340 8.0 0.0 0.00 0.00 0.00 94 1018.0
20260902011816 63 320 6.0 0.0 0.00 0.00 0.00 88 1018.0
20260902010317 63 320 6.0 0.0 0.00 0.00 0.00 88 1018.0
20260902004817 63 330 5.0 0.0 0.00 0.00 0.00 94 1017.0
20260902003316 63 330 5.0 0.0 0.00 0.00 0.00 94 1017.0
20260902001818 66 300 8.0 0.0 0.00 0.00 0.00 88 1017.0
20260902000323 66 300 8.0 0.0 0.00 0.00 0.00 88 1017.0
20260901234819 66 290 8.0 0.0 0.00 0.00 0.00 88 1017.0
20260901233317 66 290 8.0 0.0 0.00 0.00 0.00 88 1017.0
20260901231817 64 270 6.0 0.0 0.00 0.00 0.00 88 1017.0
20260901230333 64 270 6.0 0.0 0.00 0.00 0.00 88 1017.0
20260901224817 64 270 6.0 0.0 0.00 0.00 0.00 88 1017.0
20260901223317 64 270 6.0 0.0 0.00 0.00 0.00 88 1017.0
20260901221817 64 250 6.0 0.0 0.00 0.00 0.00 94 1017.0
20260901220317 64 250 6.0 0.0 0.00 0.00 0.00 94 1017.0
20260901214818 64 250 5.0 0.0 0.00 0.00 0.00 88 1017.0
20260901213423 64 250 5.0 0.0 0.00 0.00 0.00 88 1017.0
20260901211817 64 180 5.0 0.0 0.00 0.00 0.00 83 1017.0
20260901210347 64 180 5.0 0.0 0.00 0.00 0.00 83 1017.0
20260901204819 64 160 5.0 0.0 0.00 0.00 0.00 78 1017.0
20260901203349 64 160 5.0 0.0 0.00 0.00 0.00 78 1017.0
20260901201818 66 170 5.0 0.0 0.00 0.00 0.00 78 1017.0